| time (UTC) | temp F | wind direction | speed MPH | gust MPH | rain 1hr in | rain 24hr in | rain mn in | humidity % | barometer mb |
| 20260505062533 | 62 | 191 | 0.0 | 0.0 | 0.00 | 0.00 | 0.00 | 38 | 1006.3 |
| 20260505062028 | 62 | 192 | 0.0 | 0.0 | 0.00 | 0.00 | 0.00 | 40 | 1006.2 |
| 20260505061523 | 62 | 191 | 0.0 | 0.0 | 0.00 | 0.00 | 0.00 | 38 | 1006.2 |
| 20260505061033 | 62 | 191 | 0.0 | 0.0 | 0.00 | 0.00 | 0.00 | 36 | 1006.1 |
| 20260505060529 | 63 | 191 | 0.0 | 0.0 | 0.00 | 0.00 | 0.00 | 36 | 1006.2 |
| 20260505060036 | 63 | 191 | 0.0 | 0.0 | 0.00 | 0.00 | 0.00 | 37 | 1006.2 |
| 20260505055533 | 63 | 191 | 0.0 | 0.0 | 0.00 | 0.00 | 0.00 | 39 | 1006.3 |
| 20260505055027 | 63 | 191 | 0.0 | 0.0 | 0.00 | 0.00 | 0.00 | 37 | 1006.5 |
| 20260505054534 | 63 | 191 | 0.0 | 1.0 | 0.00 | 0.00 | 0.00 | 38 | 1006.5 |
| 20260505054035 | 63 | 191 | 0.0 | 0.0 | 0.00 | 0.00 | 0.00 | 36 | 1006.5 |
| 20260505053529 | 64 | 191 | 0.0 | 0.0 | 0.00 | 0.00 | 0.00 | 35 | 1006.5 |
| 20260505053022 | 64 | 191 | 0.0 | 0.0 | 0.00 | 0.00 | 0.00 | 34 | 1006.5 |
| 20260505052533 | 64 | 191 | 0.0 | 0.0 | 0.00 | 0.00 | 0.00 | 33 | 1006.3 |
| 20260505052028 | 65 | 191 | 0.0 | 0.0 | 0.00 | 0.00 | 0.00 | 34 | 1006.3 |
| 20260505051523 | 65 | 191 | 0.0 | 0.0 | 0.00 | 0.00 | 0.00 | 34 | 1006.4 |
| 20260505051033 | 66 | 191 | 0.0 | 0.0 | 0.00 | 0.00 | 0.00 | 33 | 1006.4 |
| 20260505050531 | 66 | 191 | 0.0 | 0.0 | 0.00 | 0.00 | 0.00 | 31 | 1006.3 |
| 20260505041532 | 69 | 46 | 0.0 | 1.0 | 0.00 | 0.00 | 0.00 | 25 | 1006.3 |
| 20260505041026 | 69 | 46 | 0.0 | 1.0 | 0.00 | 0.00 | 0.00 | 26 | 1006.2 |
| 20260505040537 | 69 | 22 | 0.0 | 1.0 | 0.00 | 0.00 | 0.00 | 26 | 1006.3 |
| 20260505040032 | 70 | 238 | 0.0 | 1.0 | 0.00 | 0.00 | 0.00 | 26 | 1006.2 |
| 20260505035525 | 70 | 322 | 0.0 | 4.0 | 0.00 | 0.00 | 0.00 | 25 | 1006.2 |
| 20260505035038 | 70 | 145 | 0.0 | 4.0 | 0.00 | 0.00 | 0.00 | 25 | 1006.0 |
| 20260505034530 | 71 | 260 | 0.0 | 2.0 | 0.00 | 0.00 | 0.00 | 25 | 1005.9 |
| 20260505034027 | 71 | 280 | 0.0 | 2.0 | 0.00 | 0.00 | 0.00 | 24 | 1005.9 |
| 20260505033523 | 71 | 236 | 0.0 | 2.0 | 0.00 | 0.00 | 0.00 | 24 | 1005.8 |
| 20260505033054 | 71 | 270 | 0.0 | 2.0 | 0.00 | 0.00 | 0.00 | 25 | 1005.6 |
| 20260505032526 | 72 | 238 | 0.0 | 3.0 | 0.00 | 0.00 | 0.00 | 23 | 1005.6 |
| 20260505032037 | 72 | 69 | 0.0 | 3.0 | 0.00 | 0.00 | 0.00 | 24 | 1005.5 |
| 20260505031530 | 72 | 287 | 0.0 | 6.0 | 0.00 | 0.00 | 0.00 | 23 | 1005.5 |
| 20260505031026 | 72 | 92 | 0.0 | 6.0 | 0.00 | 0.00 | 0.00 | 24 | 1005.4 |
| 20260505030537 | 72 | 109 | 0.0 | 2.0 | 0.00 | 0.00 | 0.00 | 25 | 1005.4 |
| 20260505030031 | 73 | 245 | 0.0 | 1.0 | 0.00 | 0.00 | 0.00 | 25 | 1005.2 |
| 20260505025529 | 73 | 243 | 0.0 | 5.0 | 0.00 | 0.00 | 0.00 | 24 | 1005.1 |
| 20260505025034 | 73 | 272 | 0.0 | 5.0 | 0.00 | 0.00 | 0.00 | 23 | 1005.1 |
| 20260505024530 | 73 | 249 | 0.0 | 5.0 | 0.00 | 0.00 | 0.00 | 22 | 1005.2 |
| 20260505024025 | 73 | 294 | 0.0 | 6.0 | 0.00 | 0.00 | 0.00 | 23 | 1005.1 |
| 20260505023533 | 73 | 262 | 1.0 | 6.0 | 0.00 | 0.00 | 0.00 | 25 | 1005.1 |
| 20260505023029 | 74 | 335 | 0.0 | 3.0 | 0.00 | 0.00 | 0.00 | 23 | 1005.0 |
| 20260505022524 | 74 | 340 | 0.0 | 3.0 | 0.00 | 0.00 | 0.00 | 23 | 1004.9 |
| 20260505022017 | 74 | 295 | 0.0 | 2.0 | 0.00 | 0.00 | 0.00 | 23 | 1004.8 |
| 20260505021531 | 74 | 242 | 0.0 | 2.0 | 0.00 | 0.00 | 0.00 | 25 | 1004.7 |
| 20260505021034 | 75 | 337 | 0.0 | 4.0 | 0.00 | 0.00 | 0.00 | 23 | 1004.6 |
| 20260505020529 | 75 | 265 | 0.0 | 4.0 | 0.00 | 0.00 | 0.00 | 25 | 1004.6 |
| 20260505020023 | 75 | 274 | 1.0 | 3.0 | 0.00 | 0.00 | 0.00 | 23 | 1004.5 |
| 20260505015534 | 75 | 253 | 0.0 | 2.0 | 0.00 | 0.00 | 0.00 | 25 | 1004.4 |
| 20260505015027 | 75 | 278 | 0.0 | 3.0 | 0.00 | 0.00 | 0.00 | 26 | 1004.3 |
| 20260505014523 | 76 | 278 | 0.0 | 3.0 | 0.00 | 0.00 | 0.00 | 26 | 1004.2 |
| 20260505014033 | 76 | 301 | 0.0 | 2.0 | 0.00 | 0.00 | 0.00 | 26 | 1004.1 |
| 20260505013528 | 76 | 249 | 0.0 | 5.0 | 0.00 | 0.00 | 0.00 | 24 | 1004.1 |
| 20260505013037 | 76 | 305 | 0.0 | 4.0 | 0.00 | 0.00 | 0.00 | 25 | 1004.1 |
| 20260505012530 | 76 | 246 | 0.0 | 4.0 | 0.00 | 0.00 | 0.00 | 24 | 1004.0 |
| 20260505012035 | 77 | 144 | 0.0 | 5.0 | 0.00 | 0.00 | 0.00 | 26 | 1004.1 |
| 20260505011531 | 77 | 250 | 0.0 | 5.0 | 0.00 | 0.00 | 0.00 | 24 | 1004.1 |
| 20260505011025 | 77 | 246 | 0.0 | 7.0 | 0.00 | 0.00 | 0.00 | 23 | 1004.1 |
| 20260505010534 | 77 | 270 | 2.0 | 7.0 | 0.00 | 0.00 | 0.00 | 23 | 1004.0 |
| 20260505010032 | 77 | 266 | 0.0 | 6.0 | 0.00 | 0.00 | 0.00 | 24 | 1003.9 |
| 20260505005525 | 78 | 295 | 0.0 | 9.0 | 0.00 | 0.00 | 0.00 | 24 | 1003.9 |
| 20260505005036 | 78 | 249 | 2.0 | 9.0 | 0.00 | 0.00 | 0.00 | 23 | 1003.9 |
| 20260505004541 | 78 | 277 | 0.0 | 4.0 | 0.00 | 0.00 | 0.00 | 23 | 1004.0 |
| 20260505004025 | 78 | 72 | 1.0 | 6.0 | 0.00 | 0.00 | 0.00 | 23 | 1004.1 |
| 20260505003537 | 78 | 266 | 1.0 | 6.0 | 0.00 | 0.00 | 0.00 | 23 | 1004.2 |
| 20260505003031 | 78 | 292 | 1.0 | 5.0 | 0.00 | 0.00 | 0.00 | 23 | 1004.5 |
| 20260505002524 | 79 | 152 | 1.0 | 5.0 | 0.00 | 0.00 | 0.00 | 22 | 1004.6 |
| 20260505002034 | 79 | 227 | 1.0 | 6.0 | 0.00 | 0.00 | 0.00 | 21 | 1004.6 |
| 20260505001527 | 79 | 260 | 2.0 | 9.0 | 0.00 | 0.00 | 0.00 | 21 | 1004.7 |
| 20260505001023 | 79 | 297 | 2.0 | 9.0 | 0.00 | 0.00 | 0.00 | 22 | 1004.6 |
| 20260505000537 | 79 | 98 | 1.0 | 7.0 | 0.00 | 0.00 | 0.00 | 22 | 1004.8 |
| 20260505000028 | 79 | 293 | 2.0 | 8.0 | 0.00 | 0.00 | 0.00 | 21 | 1004.8 |
| 20260504235524 | 79 | 222 | 2.0 | 6.0 | 0.00 | 0.00 | 0.00 | 21 | 1004.8 |
| 20260504235034 | 79 | 264 | 1.0 | 6.0 | 0.00 | 0.00 | 0.00 | 21 | 1004.7 |
| 20260504234539 | 80 | 239 | 2.0 | 6.0 | 0.00 | 0.00 | 0.00 | 20 | 1004.8 |
| 20260504234027 | 80 | 298 | 1.0 | 6.0 | 0.00 | 0.00 | 0.00 | 21 | 1004.8 |
| 20260504233534 | 80 | 141 | 1.0 | 9.0 | 0.00 | 0.00 | 0.00 | 20 | 1004.8 |
| 20260504233032 | 80 | 235 | 3.0 | 9.0 | 0.00 | 0.00 | 0.00 | 20 | 1004.8 |
| 20260504232522 | 80 | 6 | 1.0 | 9.0 | 0.00 | 0.00 | 0.00 | 20 | 1004.9 |
| 20260504232034 | 80 | 100 | 3.0 | 7.0 | 0.00 | 0.00 | 0.00 | 20 | 1004.7 |
| 20260504231538 | 80 | 270 | 1.0 | 7.0 | 0.00 | 0.00 | 0.00 | 21 | 1004.8 |
| 20260504231021 | 81 | 276 | 1.0 | 6.0 | 0.00 | 0.00 | 0.00 | 20 | 1004.7 |
| 20260504230530 | 81 | 274 | 0.0 | 7.0 | 0.00 | 0.00 | 0.00 | 21 | 1004.7 |
| 20260504230028 | 81 | 194 | 2.0 | 9.0 | 0.00 | 0.00 | 0.00 | 21 | 1004.7 |
| 20260504225528 | 82 | 4 | 1.0 | 11.0 | 0.00 | 0.00 | 0.00 | 21 | 1004.7 |
| 20260504225034 | 82 | 197 | 3.0 | 11.0 | 0.00 | 0.00 | 0.00 | 20 | 1004.6 |
| 20260504224529 | 82 | 232 | 3.0 | 8.0 | 0.00 | 0.00 | 0.00 | 20 | 1004.8 |
| 20260504224022 | 83 | 245 | 2.0 | 8.0 | 0.00 | 0.00 | 0.00 | 20 | 1004.6 |
| 20260504223532 | 84 | 264 | 2.0 | 6.0 | 0.00 | 0.00 | 0.00 | 19 | 1004.6 |
| 20260504223025 | 84 | 159 | 1.0 | 6.0 | 0.00 | 0.00 | 0.00 | 19 | 1004.7 |
| 20260504222521 | 84 | 249 | 2.0 | 6.0 | 0.00 | 0.00 | 0.00 | 19 | 1004.8 |
| 20260504222031 | 83 | 312 | 1.0 | 9.0 | 0.00 | 0.00 | 0.00 | 18 | 1004.8 |
| 20260504221525 | 83 | 243 | 2.0 | 11.0 | 0.00 | 0.00 | 0.00 | 18 | 1005.0 |
| 20260504221036 | 84 | 266 | 3.0 | 11.0 | 0.00 | 0.00 | 0.00 | 17 | 1005.0 |
| 20260504220531 | 85 | 319 | 3.0 | 10.0 | 0.00 | 0.00 | 0.00 | 16 | 1005.2 |
| 20260504220027 | 85 | 17 | 2.0 | 10.0 | 0.00 | 0.00 | 0.00 | 16 | 1005.1 |
| 20260504215537 | 85 | 291 | 4.0 | 10.0 | 0.00 | 0.00 | 0.00 | 16 | 1005.4 |
| 20260504215031 | 85 | 288 | 3.0 | 7.0 | 0.00 | 0.00 | 0.00 | 17 | 1005.3 |
| 20260504214535 | 85 | 278 | 2.0 | 9.0 | 0.00 | 0.00 | 0.00 | 18 | 1005.4 |
| 20260504214037 | 85 | 167 | 3.0 | 9.0 | 0.00 | 0.00 | 0.00 | 19 | 1005.8 |
| 20260504213532 | 84 | 57 | 3.0 | 10.0 | 0.00 | 0.00 | 0.00 | 18 | 1005.8 |
| 20260504213030 | 84 | 67 | 2.0 | 10.0 | 0.00 | 0.00 | 0.00 | 18 | 1005.9 |
| 20260504212536 | 84 | 121 | 2.0 | 8.0 | 0.00 | 0.00 | 0.00 | 19 | 1006.0 |
| 20260504212034 | 83 | 53 | 1.0 | 8.0 | 0.00 | 0.00 | 0.00 | 19 | 1006.1 |
| 20260504211526 | 83 | 252 | 3.0 | 8.0 | 0.00 | 0.00 | 0.00 | 21 | 1006.2 |
| 20260504211022 | 82 | 298 | 1.0 | 8.0 | 0.00 | 0.00 | 0.00 | 20 | 1006.2 |
| 20260504210533 | 81 | 36 | 1.0 | 8.0 | 0.00 | 0.00 | 0.00 | 22 | 1006.4 |
| 20260504210028 | 82 | 257 | 1.0 | 4.0 | 0.00 | 0.00 | 0.00 | 22 | 1006.4 |
| 20260504205526 | 82 | 108 | 2.0 | 5.0 | 0.00 | 0.00 | 0.00 | 22 | 1006.4 |
| 20260504205033 | 81 | 248 | 1.0 | 6.0 | 0.00 | 0.00 | 0.00 | 22 | 1006.5 |
| 20260504204554 | 81 | 260 | 1.0 | 6.0 | 0.00 | 0.00 | 0.00 | 24 | 1006.7 |
| 20260504204034 | 79 | 263 | 1.0 | 7.0 | 0.00 | 0.00 | 0.00 | 24 | 1006.8 |
| 20260504203535 | 79 | 210 | 3.0 | 7.0 | 0.00 | 0.00 | 0.00 | 23 | 1006.8 |
| 20260504203028 | 79 | 226 | 2.0 | 8.0 | 0.00 | 0.00 | 0.00 | 23 | 1007.0 |
| 20260504202532 | 79 | 285 | 0.0 | 8.0 | 0.00 | 0.00 | 0.00 | 24 | 1007.0 |
| 20260504202042 | 80 | 321 | 1.0 | 6.0 | 0.00 | 0.00 | 0.00 | 22 | 1007.1 |
| 20260504201536 | 80 | 232 | 0.0 | 5.0 | 0.00 | 0.00 | 0.00 | 24 | 1007.0 |
| 20260504201029 | 81 | 304 | 2.0 | 7.0 | 0.00 | 0.00 | 0.00 | 23 | 1007.0 |
| 20260504200521 | 81 | 253 | 2.0 | 9.0 | 0.00 | 0.00 | 0.00 | 24 | 1007.0 |
| 20260504200039 | 81 | 174 | 3.0 | 9.0 | 0.00 | 0.00 | 0.00 | 23 | 1007.1 |
| 20260504195530 | 80 | 278 | 3.0 | 11.0 | 0.00 | 0.00 | 0.00 | 23 | 1007.2 |
| 20260504195026 | 80 | 248 | 3.0 | 11.0 | 0.00 | 0.00 | 0.00 | 23 | 1007.4 |
| 20260504194544 | 79 | 240 | 2.0 | 8.0 | 0.00 | 0.00 | 0.00 | 24 | 1007.5 |
| 20260504194031 | 78 | 250 | 2.0 | 11.0 | 0.00 | 0.00 | 0.00 | 25 | 1007.4 |
| 20260504193524 | 78 | 226 | 2.0 | 11.0 | 0.00 | 0.00 | 0.00 | 25 | 1007.7 |
| 20260504193036 | 77 | 156 | 1.0 | 4.0 | 0.00 | 0.00 | 0.00 | 26 | 1007.7 |
| 20260504192531 | 77 | 252 | 1.0 | 8.0 | 0.00 | 0.00 | 0.00 | 26 | 1007.8 |
| 20260504192025 | 77 | 287 | 2.0 | 8.0 | 0.00 | 0.00 | 0.00 | 26 | 1007.8 |
| 20260504191535 | 77 | 250 | 0.0 | 7.0 | 0.00 | 0.00 | 0.00 | 28 | 1007.8 |
| 20260504191028 | 77 | 135 | 1.0 | 7.0 | 0.00 | 0.00 | 0.00 | 30 | 1008.0 |
| 20260504190524 | 76 | 266 | 0.0 | 2.0 | 0.00 | 0.00 | 0.00 | 32 | 1008.0 |
| 20260504190037 | 76 | 246 | 0.0 | 2.0 | 0.00 | 0.00 | 0.00 | 31 | 1008.2 |
| 20260504185527 | 75 | 239 | 0.0 | 2.0 | 0.00 | 0.00 | 0.00 | 31 | 1008.3 |
| 20260504185023 | 74 | 232 | 0.0 | 4.0 | 0.00 | 0.00 | 0.00 | 33 | 1008.4 |
| 20260504184533 | 74 | 253 | 0.0 | 4.0 | 0.00 | 0.00 | 0.00 | 32 | 1008.6 |
| 20260504184028 | 73 | 197 | 0.0 | 5.0 | 0.00 | 0.00 | 0.00 | 34 | 1008.6 |
| 20260504183524 | 73 | 204 | 0.0 | 7.0 | 0.00 | 0.00 | 0.00 | 32 | 1008.6 |
| 20260504183032 | 73 | 173 | 0.0 | 5.0 | 0.00 | 0.00 | 0.00 | 34 | 1008.6 |
| 20260504182530 | 73 | 181 | 0.0 | 1.0 | 0.00 | 0.00 | 0.00 | 36 | 1008.8 |
| 20260504182023 | 72 | 243 | 0.0 | 3.0 | 0.00 | 0.00 | 0.00 | 34 | 1008.8 |
| 20260504181533 | 72 | 258 | 0.0 | 3.0 | 0.00 | 0.00 | 0.00 | 34 | 1008.8 |
| 20260504181028 | 72 | 187 | 0.0 | 4.0 | 0.00 | 0.00 | 0.00 | 35 | 1008.9 |
| 20260504180522 | 72 | 270 | 0.0 | 5.0 | 0.00 | 0.00 | 0.00 | 34 | 1009.2 |
| 20260504180031 | 72 | 214 | 0.0 | 2.0 | 0.00 | 0.00 | 0.00 | 36 | 1009.1 |
| 20260504175529 | 72 | 139 | 0.0 | 2.0 | 0.00 | 0.00 | 0.00 | 36 | 1009.3 |
| 20260504175024 | 72 | 225 | 0.0 | 6.0 | 0.00 | 0.00 | 0.00 | 35 | 1009.4 |
| 20260504174532 | 71 | 135 | 1.0 | 6.0 | 0.00 | 0.00 | 0.00 | 36 | 1009.5 |
| 20260504174028 | 71 | 96 | 0.0 | 4.0 | 0.00 | 0.00 | 0.00 | 40 | 1009.9 |
| 20260504173526 | 70 | 360 | 0.0 | 2.0 | 0.00 | 0.00 | 0.00 | 40 | 1009.7 |
| 20260504173034 | 70 | 139 | 0.0 | 1.0 | 0.00 | 0.00 | 0.00 | 41 | 1009.7 |
| 20260504172528 | 70 | 139 | 0.0 | 5.0 | 0.00 | 0.00 | 0.00 | 42 | 1009.7 |
| 20260504172038 | 70 | 112 | 2.0 | 5.0 | 0.00 | 0.00 | 0.00 | 42 | 1009.7 |
| 20260504171539 | 70 | 117 | 0.0 | 2.0 | 0.00 | 0.00 | 0.00 | 44 | 1009.8 |
| 20260504171032 | 70 | 117 | 0.0 | 2.0 | 0.00 | 0.00 | 0.00 | 41 | 1009.9 |
| 20260504170526 | 70 | 110 | 0.0 | 2.0 | 0.00 | 0.00 | 0.00 | 40 | 1009.9 |
| 20260504151027 | 64 | 291 | 0.0 | 0.0 | 0.00 | 0.00 | 0.00 | 51 | 1010.1 |
| 20260504150535 | 63 | 291 | 0.0 | 1.0 | 0.00 | 0.00 | 0.00 | 50 | 1010.0 |
| 20260504141029 | 63 | 97 | 0.0 | 1.0 | 0.00 | 0.00 | 0.00 | 51 | 1010.3 |
| 20260504140521 | 63 | 101 | 0.0 | 1.0 | 0.00 | 0.00 | 0.00 | 49 | 1010.4 |
| 20260504130525 | 60 | 240 | 0.0 | 1.0 | 0.00 | 0.00 | 0.00 | 51 | 1010.1 |
| 20260504110528 | 61 | 106 | 0.0 | 1.0 | 0.00 | 0.00 | 0.00 | 52 | 1007.8 |
| 20260504100530 | 58 | 352 | 0.0 | 0.0 | 0.00 | 0.00 | 0.00 | 73 | 1007.9 |
| 20260504081533 | 55 | 112 | 0.0 | 0.0 | 0.00 | 0.00 | 0.00 | 85 | 1008.1 |
| 20260504081026 | 56 | 112 | 0.0 | 0.0 | 0.00 | 0.00 | 0.00 | 85 | 1008.1 |
| 20260504080527 | 56 | 111 | 0.0 | 0.0 | 0.00 | 0.00 | 0.00 | 85 | 1008.2 |